UAE719 OMDB-HKJK

Flight info

Callsign UAE719
Flight time N/A
Altitude 34000
Route ANVIX R401 GIDIS G783 ELUDA/N0485F360 G783 UKRAG/N0484F350 L710 KUKDI/N0486F360 B400 RIGAM B403 BOMIX UB403 MAV UP312 WAV WAJI1A
Aircraft B77W/H-SDE1E2E3FGHIJ2J3J4J5M1RWXY/LB1D1

Departure

Time 2026-04-20 07:08
Airport Dubai International Airport (OMDB)

Arrival

Time N/A
Airport Jomo Kenyatta International Airport (HKJK)
Time Latitude Longitude Altitude Speed Heading
2026-04-20 06:31 25.25451 55.35278 29 ft 0 kts 211°
2026-04-20 06:54 25.25464 55.35287 31 ft 4 kts 211°
2026-04-20 06:54 25.25487 55.35303 32 ft 4 kts 211°
2026-04-20 06:54 25.25506 55.35315 31 ft 4 kts 217°
2026-04-20 06:55 25.25520 55.35332 32 ft 4 kts 251°
2026-04-20 06:55 25.25523 55.35354 32 ft 4 kts 287°
2026-04-20 06:55 25.25513 55.35377 32 ft 4 kts 302°
2026-04-20 06:55 25.25499 55.35401 32 ft 2 kts 302°
2026-04-20 06:56 25.25499 55.35402 32 ft 0 kts 302°
2026-04-20 06:59 25.25509 55.35384 32 ft 11 kts 302°
2026-04-20 06:59 25.25556 55.35301 32 ft 13 kts 302°
2026-04-20 06:59 25.25604 55.35215 28 ft 13 kts 302°
2026-04-20 06:59 25.25670 55.35155 30 ft 13 kts
2026-04-20 07:00 25.25752 55.35197 29 ft 13 kts 31°
2026-04-20 07:00 25.25830 55.35249 32 ft 13 kts 31°
2026-04-20 07:00 25.25908 55.35302 26 ft 13 kts 31°
2026-04-20 07:00 25.25980 55.35363 27 ft 13 kts 51°
2026-04-20 07:01 25.26008 55.35494 27 ft 24 kts 98°
2026-04-20 07:01 25.25928 55.35663 28 ft 24 kts 122°
2026-04-20 07:01 25.25840 55.35822 28 ft 24 kts 122°
2026-04-20 07:01 25.25751 55.35979 28 ft 24 kts 122°
2026-04-20 07:02 25.25663 55.36137 26 ft 24 kts 122°
2026-04-20 07:02 25.25574 55.36295 28 ft 24 kts 122°
2026-04-20 07:02 25.25487 55.36450 29 ft 24 kts 122°
2026-04-20 07:02 25.25397 55.36609 29 ft 24 kts 122°
2026-04-20 07:03 25.25310 55.36765 30 ft 24 kts 122°
2026-04-20 07:03 25.25222 55.36923 29 ft 24 kts 122°
2026-04-20 07:03 25.25133 55.37080 30 ft 24 kts 122°
2026-04-20 07:03 25.25044 55.37238 30 ft 24 kts 121°
2026-04-20 07:04 25.24955 55.37395 30 ft 24 kts 122°
2026-04-20 07:04 25.24867 55.37553 30 ft 24 kts 122°
2026-04-20 07:04 25.24778 55.37710 30 ft 24 kts 122°
2026-04-20 07:04 25.24712 55.37829 29 ft 15 kts 122°
2026-04-20 07:05 25.24658 55.37924 29 ft 15 kts 122°
2026-04-20 07:05 25.24605 55.38019 30 ft 15 kts 122°
2026-04-20 07:05 25.24569 55.38121 29 ft 15 kts 79°
2026-04-20 07:05 25.24640 55.38193 29 ft 11 kts 34°
2026-04-20 07:06 25.24706 55.38201 30 ft 11 kts 316°
2026-04-20 07:06 25.24732 55.38160 32 ft 0 kts 302°
2026-04-20 07:07 25.24807 55.38028 35 ft 57 kts 302°
2026-04-20 07:07 25.25149 55.37408 36 ft 130 kts 301°
2026-04-20 07:07 25.25731 55.36354 37 ft 188 kts 301°
2026-04-20 07:07 25.26432 55.35081 503 ft 195 kts 301°
2026-04-20 07:08 25.27143 55.33808 1261 ft 194 kts 301°
2026-04-20 07:08 25.27851 55.32536 1970 ft 196 kts 302°
2026-04-20 07:08 25.28565 55.31253 2724 ft 194 kts 303°
2026-04-20 07:08 25.29208 55.29948 3376 ft 196 kts 286°
2026-04-20 07:09 25.29120 55.28468 3945 ft 198 kts 249°
2026-04-20 07:09 25.28530 55.27061 4382 ft 205 kts 247°
2026-04-20 07:09 25.27923 55.25621 4958 ft 207 kts 247°
2026-04-20 07:09 25.27306 55.24166 5487 ft 210 kts 247°
2026-04-20 07:10 25.26683 55.22702 6037 ft 210 kts 247°
2026-04-20 07:10 25.26057 55.21232 6531 ft 214 kts 247°
2026-04-20 07:10 25.25391 55.19661 6708 ft 236 kts 247°
2026-04-20 07:10 25.24642 55.18035 7060 ft 247 kts 235°
2026-04-20 07:11 25.23270 55.16855 7523 ft 259 kts 201°
2026-04-20 07:11 25.21465 55.16695 8023 ft 264 kts 177°
2026-04-20 07:11 25.19612 55.16986 8429 ft 275 kts 161°
2026-04-20 07:11 25.18007 55.18161 8748 ft 289 kts 128°
2026-04-20 07:12 25.16974 55.20098 9057 ft 298 kts 115°
2026-04-20 07:12 25.16027 55.22169 9659 ft 306 kts 116°
2026-04-20 07:12 25.15042 55.24266 10333 ft 309 kts 116°
2026-04-20 07:12 25.14040 55.26370 11106 ft 310 kts 117°
2026-04-20 07:13 25.13031 55.28482 11910 ft 312 kts 117°
2026-04-20 07:13 25.12011 55.30608 12758 ft 315 kts 117°
2026-04-20 07:13 25.10979 55.32752 13606 ft 317 kts 117°
2026-04-20 07:13 25.09997 55.34945 14381 ft 321 kts 114°
2026-04-20 07:14 25.09080 55.37205 15118 ft 325 kts 114°
2026-04-20 07:14 25.08154 55.39497 15870 ft 329 kts 114°
2026-04-20 07:14 25.07208 55.41818 16641 ft 333 kts 114°
2026-04-20 07:14 25.06282 55.44184 17053 ft 351 kts 113°
2026-04-20 07:15 25.05305 55.46749 17224 ft 374 kts 113°
2026-04-20 07:15 25.04265 55.49477 17393 ft 397 kts 113°
2026-04-20 07:15 25.03160 55.52356 17581 ft 417 kts 113°
2026-04-20 07:15 25.02006 55.55338 18038 ft 428 kts 114°
2026-04-20 07:16 25.00631 55.58285 18534 ft 435 kts 121°
2026-04-20 07:16 24.99029 55.61137 19111 ft 440 kts 123°
2026-04-20 07:16 24.97378 55.63996 19734 ft 443 kts 123°
2026-04-20 07:16 24.95756 55.66906 20304 ft 448 kts 122°
2026-04-20 07:17 24.94143 55.69874 20873 ft 453 kts 122°
2026-04-20 07:17 24.92398 55.72789 21410 ft 458 kts 127°
2026-04-20 07:17 24.90486 55.75624 21961 ft 462 kts 128°
2026-04-20 07:17 24.88526 55.78450 22517 ft 467 kts 128°
2026-04-20 07:18 24.86590 55.81292 23053 ft 472 kts 128°
2026-04-20 07:18 24.84636 55.84223 23553 ft 477 kts 127°
2026-04-20 07:18 24.82670 55.87180 24021 ft 480 kts 128°
2026-04-20 07:18 24.80601 55.90040 24440 ft 477 kts 137°
2026-04-20 07:19 24.77939 55.92214 24815 ft 478 kts 155°
2026-04-20 07:19 24.74842 55.93465 25313 ft 475 kts 169°
2026-04-20 07:19 24.71554 55.93836 25834 ft 472 kts 184°
2026-04-20 07:19 24.68275 55.93626 26314 ft 473 kts 185°
2026-04-20 07:20 24.64962 55.93428 26743 ft 475 kts 186°
2026-04-20 07:20 24.61700 55.92834 27045 ft 478 kts 198°
2026-04-20 07:20 24.58611 55.91489 27448 ft 478 kts 209°
2026-04-20 07:20 24.55810 55.89523 27900 ft 476 kts 220°
2026-04-20 07:21 24.53321 55.87113 28292 ft 479 kts 223°
2026-04-20 07:21 24.50851 55.84638 28646 ft 482 kts 223°
2026-04-20 07:21 24.48360 55.82158 28984 ft 485 kts 223°
2026-04-20 07:21 24.45861 55.79714 29345 ft 488 kts 222°
2026-04-20 07:22 24.43307 55.77251 29801 ft 488 kts 222°
2026-04-20 07:22 24.40749 55.74802 30285 ft 486 kts 222°
2026-04-20 07:22 24.38200 55.72365 30753 ft 485 kts 223°
2026-04-20 07:22 24.35666 55.69932 31174 ft 484 kts 223°
2026-04-20 07:23 24.33140 55.67493 31562 ft 484 kts 223°
2026-04-20 07:23 24.30611 55.65048 31963 ft 484 kts 223°
2026-04-20 07:23 24.27963 55.62753 32341 ft 486 kts 216°
2026-04-20 07:23 24.25039 55.60877 32723 ft 488 kts 209°
2026-04-20 07:24 24.21925 55.59360 33092 ft 491 kts 203°
2026-04-20 07:24 24.18644 55.58268 33418 ft 494 kts 198°
2026-04-20 07:24 24.15313 55.57331 33755 ft 495 kts 197°
2026-04-20 07:24 24.11977 55.56407 34047 ft 495 kts 198°
2026-04-20 07:25 24.08677 55.55470 34288 ft 496 kts 199°
2026-04-20 07:25 24.06424 55.54812 34446 ft 497 kts 199°
2026-04-20 07:25 24.01992 55.53499 34773 ft 498 kts 200°
2026-04-20 07:25 23.99730 55.52826 34936 ft 498 kts 200°
2026-04-20 07:26 23.95291 55.51503 35257 ft 500 kts 200°
2026-04-20 07:26 23.93022 55.50827 35414 ft 500 kts 200°
2026-04-20 07:26 23.89701 55.49838 35645 ft 501 kts 201°
2026-04-20 07:26 23.86330 55.48835 35802 ft 504 kts 201°
2026-04-20 07:27 23.82938 55.47825 35844 ft 507 kts 201°
2026-04-20 07:27 23.76142 55.45802 35857 ft 504 kts 201°
2026-04-20 07:28 23.69411 55.43798 35880 ft 500 kts 201°
2026-04-20 07:28 23.62690 55.41795 35878 ft 500 kts 201°
2026-04-20 07:29 23.55959 55.39840 35882 ft 503 kts 197°
2026-04-20 07:29 23.48916 55.39437 35884 ft 518 kts 179°
2026-04-20 07:30 23.41802 55.41147 35891 ft 527 kts 167°
2026-04-20 07:30 23.34760 55.43457 35888 ft 530 kts 167°
2026-04-20 07:31 23.27679 55.45763 35882 ft 531 kts 167°
2026-04-20 07:31 23.20584 55.48011 35880 ft 532 kts 167°
2026-04-20 07:32 23.13470 55.50250 35886 ft 532 kts 167°
2026-04-20 07:32 23.06363 55.52491 35880 ft 531 kts 167°
2026-04-20 07:33 22.99259 55.54708 35876 ft 531 kts 168°
2026-04-20 07:33 22.92185 55.56860 35878 ft 530 kts 168°
2026-04-20 07:34 22.85081 55.59018 35882 ft 530 kts 168°
2026-04-20 07:34 22.77968 55.61186 35886 ft 530 kts 168°
2026-04-20 07:35 22.67308 55.64436 35879 ft 531 kts 168°
2026-04-20 07:35 22.60198 55.66601 35882 ft 531 kts 167°
2026-04-20 07:36 22.53125 55.68768 35887 ft 532 kts 167°
2026-04-20 07:36 22.46007 55.70952 35882 ft 532 kts 167°
2026-04-20 07:37 22.38866 55.73137 35880 ft 533 kts 167°
2026-04-20 07:37 22.31735 55.75317 35893 ft 533 kts 167°
2026-04-20 07:38 22.24549 55.77255 35885 ft 530 kts 174°
2026-04-20 07:38 22.17243 55.78079 35886 ft 527 kts 180°
2026-04-20 07:39 22.09964 55.78727 35881 ft 528 kts 179°
2026-04-20 07:39 22.02638 55.79433 35894 ft 529 kts 179°
2026-04-20 07:40 21.95303 55.80174 35876 ft 530 kts 179°
2026-04-20 07:40 21.87951 55.80918 35877 ft 530 kts 179°
2026-04-20 07:41 21.80583 55.81659 35886 ft 531 kts 179°
2026-04-20 07:41 21.73261 55.82393 35886 ft 532 kts 179°
2026-04-20 07:42 21.65891 55.83126 35886 ft 532 kts 179°
2026-04-20 07:42 21.58512 55.83846 35885 ft 532 kts 179°
2026-04-20 07:43 21.51125 55.84565 35882 ft 533 kts 179°
2026-04-20 07:43 21.43736 55.85286 35881 ft 533 kts 179°
2026-04-20 07:44 21.36338 55.86009 35879 ft 534 kts 179°
2026-04-20 07:44 21.28973 55.86727 35876 ft 534 kts 179°
2026-04-20 07:45 21.21568 55.87444 35873 ft 535 kts 179°
2026-04-20 07:45 21.14148 55.88156 35869 ft 535 kts 179°
2026-04-20 07:46 21.06721 55.88868 35872 ft 535 kts 179°
2026-04-20 07:46 20.99289 55.89582 35869 ft 536 kts 179°
2026-04-20 07:47 20.91858 55.90295 35864 ft 536 kts 179°
2026-04-20 07:47 20.84466 55.91005 35866 ft 537 kts 179°
2026-04-20 07:48 20.77024 55.91735 35861 ft 537 kts 179°
2026-04-20 07:48 20.69566 55.92471 35863 ft 537 kts 179°
2026-04-20 07:49 20.62126 55.93202 35863 ft 537 kts 179°
2026-04-20 07:49 20.54666 55.93933 35861 ft 538 kts 179°
2026-04-20 07:50 20.47261 55.94658 35867 ft 538 kts 179°
2026-04-20 07:50 20.39804 55.95388 35865 ft 538 kts 179°
2026-04-20 07:51 20.32336 55.96118 35863 ft 539 kts 179°
2026-04-20 07:51 20.24862 55.96837 35864 ft 539 kts 179°
2026-04-20 07:52 20.17380 55.97545 35862 ft 540 kts 179°
2026-04-20 07:52 20.09891 55.98258 35861 ft 540 kts 179°
2026-04-20 07:53 20.02398 55.98716 35872 ft 537 kts 184°
2026-04-20 07:53 19.94982 55.98815 35865 ft 537 kts 184°
2026-04-20 07:54 19.87503 55.98918 35863 ft 537 kts 184°
2026-04-20 07:54 19.80013 55.99088 35862 ft 538 kts 183°
2026-04-20 07:55 19.72529 55.99277 35863 ft 538 kts 183°
2026-04-20 07:55 19.65036 55.99458 35863 ft 538 kts 183°
2026-04-20 07:56 19.57539 55.99636 35862 ft 537 kts 184°
2026-04-20 07:56 19.50254 55.98671 35875 ft 521 kts 202°
2026-04-20 07:57 19.43658 55.95787 35867 ft 505 kts 218°
2026-04-20 07:57 19.37631 55.92023 35864 ft 507 kts 218°
2026-04-20 07:58 19.31516 55.88228 35865 ft 509 kts 218°
2026-04-20 07:58 19.25364 55.84485 35865 ft 511 kts 217°
2026-04-20 07:59 19.19190 55.80753 35864 ft 511 kts 217°
2026-04-20 07:59 19.13054 55.77039 35865 ft 511 kts 217°
2026-04-20 08:00 19.06877 55.73300 35865 ft 511 kts 217°
2026-04-20 08:00 19.00702 55.69579 35866 ft 510 kts 217°
2026-04-20 08:01 18.94529 55.65875 35868 ft 510 kts 217°
2026-04-20 08:01 18.88359 55.62171 35866 ft 510 kts 217°
2026-04-20 08:02 18.82203 55.58473 35864 ft 509 kts 217°
2026-04-20 08:02 18.76079 55.54797 35868 ft 509 kts 217°
2026-04-20 08:03 18.69920 55.51102 35869 ft 509 kts 217°
2026-04-20 08:03 18.63752 55.47406 35865 ft 510 kts 217°
2026-04-20 08:04 18.57585 55.43713 35865 ft 510 kts 217°
2026-04-20 08:04 18.51443 55.40038 35872 ft 510 kts 217°
2026-04-20 08:05 18.45262 55.36341 35861 ft 511 kts 217°
2026-04-20 08:05 18.39073 55.32641 35865 ft 511 kts 217°
2026-04-20 08:06 18.32876 55.28944 35866 ft 512 kts 217°
2026-04-20 08:06 18.26685 55.25253 35868 ft 512 kts 217°
2026-04-20 08:07 18.20484 55.21552 35871 ft 512 kts 217°
2026-04-20 08:07 18.14315 55.17902 35872 ft 514 kts 214°
2026-04-20 08:08 18.07750 55.14796 35870 ft 519 kts 209°
2026-04-20 08:08 18.01072 55.11876 35871 ft 519 kts 209°
2026-04-20 08:09 17.94412 55.08936 35876 ft 519 kts 209°
2026-04-20 08:09 17.87771 55.05965 35881 ft 518 kts 210°
2026-04-20 08:10 17.81141 55.02989 35882 ft 518 kts 210°
2026-04-20 08:10 17.74509 55.00016 35881 ft 518 kts 209°
2026-04-20 08:11 17.67890 54.97055 35890 ft 517 kts 209°
2026-04-20 08:11 17.61268 54.94095 35902 ft 517 kts 209°
2026-04-20 08:12 17.54655 54.91140 35900 ft 517 kts 209°
2026-04-20 08:12 17.48040 54.88187 35905 ft 517 kts 209°
2026-04-20 08:13 17.41449 54.85247 35909 ft 517 kts 209°
2026-04-20 08:13 17.34830 54.82292 35906 ft 517 kts 209°
2026-04-20 08:14 17.28225 54.79322 35915 ft 515 kts 211°
2026-04-20 08:14 17.23071 54.76318 35912 ft 506 kts 219°
2026-04-20 08:15 17.17176 54.72301 35903 ft 505 kts 220°
2026-04-20 08:15 17.11273 54.68292 35924 ft 505 kts 219°
2026-04-20 08:16 17.05345 54.64320 35874 ft 506 kts 219°
2026-04-20 08:16 16.99463 54.60395 35922 ft 505 kts 219°
2026-04-20 08:17 16.93542 54.56438 35911 ft 506 kts 219°
2026-04-20 08:17 16.87608 54.52479 35906 ft 506 kts 219°
2026-04-20 08:18 16.81657 54.48516 35899 ft 507 kts 219°
2026-04-20 08:18 16.75703 54.44551 35892 ft 507 kts 219°
2026-04-20 08:19 16.69749 54.40583 35888 ft 507 kts 219°
2026-04-20 08:19 16.63810 54.36627 35885 ft 507 kts 218°
2026-04-20 08:20 16.57859 54.32666 35880 ft 507 kts 218°
2026-04-20 08:20 16.51918 54.28714 35886 ft 506 kts 218°
2026-04-20 08:21 16.46018 54.24793 35897 ft 506 kts 218°
2026-04-20 08:21 16.40076 54.20847 35893 ft 506 kts 218°
2026-04-20 08:22 16.34139 54.16907 35896 ft 506 kts 218°
2026-04-20 08:22 16.28201 54.12969 35902 ft 506 kts 218°
2026-04-20 08:23 16.22267 54.09036 35900 ft 506 kts 218°
2026-04-20 08:23 16.16333 54.05106 35903 ft 506 kts 218°
2026-04-20 08:24 16.10394 54.01176 35907 ft 506 kts 218°